Terug naar catalogus

STARLINK-35516

ActiefCommunicatieVLEO
NORAD 65918·PAYLOAD·🇺🇸 United States

Gelanceerd Oct 8, 2025 vanaf Vandenberg Space Force Base

Loading…

Volgende Passages (komende 24 uur)

TLE

VersSource: CelesTrak SupGP

Epoch: Sep 14, 2026, 23:00 UTC

1 65918C 25225J   26257.95881944 -.00007745  00000+0 -22879-3 0  2577
2 65918  53.1593   5.7800 0001111  71.3728  44.0417 15.34398732    15

Volg STARLINK-35516 in realtime met AllMySat

Download on the App Store